Simultaneous Nadir Overpasses (SNOs) Predictions

Prediction of SNOs between GOES-16 and NPP Satellite Orbit:

Table of predicted SNOs for the next 14.0 days since TLE Epoch: 7/6/2024
Index Date Time (GOES-16) GOES-16 Lat,Lon NPP Lat,Lon Distance(km) Time Diff (sec)
1 07/06/2024 18:41:48 -0.03, -75.20 -0.82, -78.76 405.98 80
2 07/07/2024 18:20:24 -0.02, -75.21 0.17, -74.24 110.13 80
3 07/09/2024 06:44:55 0.03, -75.22 0.98, -79.52 490.36 80
4 07/10/2024 06:23:31 0.03, -75.22 -0.02, -74.99 26.37 80
5 07/12/2024 18:29:26 -0.03, -75.26 -0.16, -75.78 59.75 80
6 07/13/2024 18:08:03 -0.03, -75.27 0.85, -71.25 457.51 80
7 07/15/2024 06:32:33 0.02, -75.29 0.29, -76.54 141.71 80
8 07/16/2024 06:11:09 0.02, -75.31 -0.72, -72.01 375.59 80
9 07/17/2024 18:35:48 -0.01, -75.34 -0.46, -77.33 227.25 80
10 07/18/2024 18:14:24 0.00, -75.35 0.55, -72.80 290.01 80
